BAW9715 EGCC-EGPH

Flight info

Callsign BAW9715
Flight time 0h 35m
Altitude 24000
Route POL N601 INPIP
Aircraft A320/M-SDE3FGHIRWY/LB1

Departure

Time 2026-05-07 11:19
Airport Manchester Airport (EGCC)

Arrival

Time 2026-05-07 11:54
Airport Edinburgh Airport (EGPH)
Time Latitude Longitude Altitude Speed Heading
2026-05-07 11:03 53.35927 -2.28002 248 ft 0 kts 258°
2026-05-07 11:08 53.35929 -2.27978 247 ft 4 kts 258°
2026-05-07 11:08 53.35935 -2.27933 247 ft 4 kts 258°
2026-05-07 11:09 53.35940 -2.27890 247 ft 4 kts 257°
2026-05-07 11:09 53.35949 -2.27852 247 ft 4 kts 219°
2026-05-07 11:09 53.35971 -2.27837 247 ft 1 kts 185°
2026-05-07 11:09 53.35972 -2.27837 247 ft 0 kts 185°
2026-05-07 11:11 53.35969 -2.27837 247 ft 2 kts 185°
2026-05-07 11:11 53.35939 -2.27841 247 ft 6 kts 185°
2026-05-07 11:11 53.35888 -2.27849 247 ft 9 kts 185°
2026-05-07 11:12 53.35831 -2.27859 247 ft 7 kts 186°
2026-05-07 11:12 53.35812 -2.27863 247 ft 0 kts 186°
2026-05-07 11:13 53.35809 -2.27863 247 ft 2 kts 186°
2026-05-07 11:13 53.35775 -2.27869 247 ft 7 kts 186°
2026-05-07 11:14 53.35719 -2.27879 247 ft 10 kts 186°
2026-05-07 11:14 53.35643 -2.27891 247 ft 12 kts 186°
2026-05-07 11:14 53.35549 -2.27909 247 ft 15 kts 186°
2026-05-07 11:14 53.35459 -2.27851 247 ft 15 kts 103°
2026-05-07 11:15 53.35505 -2.27691 248 ft 17 kts 50°
2026-05-07 11:15 53.35578 -2.27541 250 ft 11 kts 57°
2026-05-07 11:15 53.35577 -2.27466 255 ft 3 kts 123°
2026-05-07 11:15 53.35575 -2.27463 256 ft 0 kts 130°
2026-05-07 11:17 53.35556 -2.27435 258 ft 8 kts 140°
2026-05-07 11:17 53.35484 -2.27338 262 ft 18 kts 141°
2026-05-07 11:17 53.35373 -2.27200 258 ft 22 kts 156°
2026-05-07 11:17 53.35246 -2.27217 248 ft 14 kts 191°
2026-05-07 11:18 53.35149 -2.27250 243 ft 15 kts 192°
2026-05-07 11:18 53.35028 -2.27299 239 ft 20 kts 208°
2026-05-07 11:18 53.34901 -2.27543 237 ft 54 kts 231°
2026-05-07 11:18 53.34477 -2.28420 222 ft 136 kts 231°
2026-05-07 11:19 53.33807 -2.29793 730 ft 155 kts 229°
2026-05-07 11:19 53.33124 -2.31213 1602 ft 158 kts 227°
2026-05-07 11:19 53.32432 -2.32691 2036 ft 171 kts 231°
2026-05-07 11:19 53.32013 -2.34667 2428 ft 195 kts 266°
2026-05-07 11:20 53.32421 -2.36954 2846 ft 223 kts 301°
2026-05-07 11:20 53.33610 -2.38837 3306 ft 250 kts 321°
2026-05-07 11:20 53.35108 -2.40566 3861 ft 269 kts 323°
2026-05-07 11:20 53.36758 -2.42087 4847 ft 272 kts 335°
2026-05-07 11:21 53.38542 -2.43171 5794 ft 275 kts 338°
2026-05-07 11:21 53.40369 -2.44177 6711 ft 278 kts 340°
2026-05-07 11:21 53.42222 -2.45166 7548 ft 282 kts 340°
2026-05-07 11:21 53.44153 -2.45843 8356 ft 289 kts 357°
2026-05-07 11:22 53.46158 -2.45314 9085 ft 298 kts 20°
2026-05-07 11:22 53.48045 -2.43796 9769 ft 304 kts 29°
2026-05-07 11:22 53.49899 -2.42033 9973 ft 306 kts 31°
2026-05-07 11:22 53.51682 -2.40086 10362 ft 305 kts 37°
2026-05-07 11:23 53.53380 -2.37920 11111 ft 308 kts 38°
2026-05-07 11:23 53.55109 -2.35676 11629 ft 320 kts 38°
2026-05-07 11:23 53.56888 -2.33335 12161 ft 331 kts 39°
2026-05-07 11:23 53.58735 -2.30873 12479 ft 347 kts 39°
2026-05-07 11:24 53.60663 -2.28285 12839 ft 361 kts 39°
2026-05-07 11:24 53.62656 -2.25595 13321 ft 371 kts 39°
2026-05-07 11:24 53.64695 -2.22910 14040 ft 373 kts 38°
2026-05-07 11:24 53.66761 -2.20208 14612 ft 378 kts 38°
2026-05-07 11:25 53.68851 -2.17482 15201 ft 382 kts 38°
2026-05-07 11:25 53.70963 -2.14738 15805 ft 384 kts 38°
2026-05-07 11:25 53.73086 -2.11975 16412 ft 387 kts 37°
2026-05-07 11:25 53.75431 -2.09698 16842 ft 394 kts 20°
2026-05-07 11:26 53.78111 -2.08703 17353 ft 396 kts
2026-05-07 11:26 53.80830 -2.09172 18027 ft 393 kts 342°
2026-05-07 11:26 53.83324 -2.10999 18647 ft 391 kts 325°
2026-05-07 11:26 53.85393 -2.13867 19191 ft 390 kts 313°
2026-05-07 11:27 53.87325 -2.17199 19747 ft 394 kts 312°
2026-05-07 11:27 53.89458 -2.20077 20250 ft 402 kts 327°
2026-05-07 11:27 53.92020 -2.22130 20656 ft 411 kts 336°
2026-05-07 11:27 53.94690 -2.23944 21141 ft 415 kts 336°
2026-05-07 11:28 53.97378 -2.25769 21659 ft 417 kts 337°
2026-05-07 11:28 54.00088 -2.27596 22163 ft 420 kts 336°
2026-05-07 11:28 54.02813 -2.29434 22655 ft 422 kts 336°
2026-05-07 11:28 54.05545 -2.31307 23172 ft 424 kts 337°
2026-05-07 11:29 54.08304 -2.33134 23679 ft 426 kts 338°
2026-05-07 11:29 54.11106 -2.34954 23845 ft 435 kts 338°
2026-05-07 11:29 54.13936 -2.36767 23988 ft 435 kts 338°
2026-05-07 11:29 54.16771 -2.38596 24057 ft 436 kts 338°
2026-05-07 11:30 54.19602 -2.40444 24042 ft 434 kts 337°
2026-05-07 11:30 54.22411 -2.42323 24049 ft 434 kts 337°
2026-05-07 11:30 54.25230 -2.44209 24050 ft 435 kts 337°
2026-05-07 11:30 54.28057 -2.46095 24050 ft 436 kts 337°
2026-05-07 11:31 54.30891 -2.47979 24050 ft 437 kts 337°
2026-05-07 11:31 54.33694 -2.49842 24048 ft 438 kts 337°
2026-05-07 11:31 54.36535 -2.51740 24048 ft 437 kts 337°
2026-05-07 11:31 54.39366 -2.53638 24046 ft 437 kts 337°
2026-05-07 11:32 54.45002 -2.57500 24037 ft 435 kts 336°
2026-05-07 11:32 54.47803 -2.59469 24043 ft 435 kts 336°
2026-05-07 11:32 54.50606 -2.61433 24043 ft 434 kts 336°
2026-05-07 11:33 54.52497 -2.62743 24043 ft 434 kts 336°
2026-05-07 11:33 54.55269 -2.64595 24043 ft 433 kts 337°
2026-05-07 11:33 54.58078 -2.66468 24042 ft 432 kts 337°
2026-05-07 11:33 54.60874 -2.68362 24042 ft 431 kts 336°
2026-05-07 11:34 54.63656 -2.70305 24042 ft 431 kts 336°
2026-05-07 11:34 54.66428 -2.72249 24042 ft 431 kts 336°
2026-05-07 11:34 54.69208 -2.74209 24042 ft 431 kts 336°
2026-05-07 11:34 54.71982 -2.76164 24042 ft 431 kts 336°
2026-05-07 11:35 54.74761 -2.78118 24046 ft 430 kts 336°
2026-05-07 11:35 54.77533 -2.80068 24046 ft 430 kts 336°
2026-05-07 11:35 54.80303 -2.82018 24046 ft 430 kts 336°
2026-05-07 11:35 54.83074 -2.83971 24043 ft 430 kts 336°
2026-05-07 11:36 54.85845 -2.85927 24041 ft 430 kts 336°
2026-05-07 11:36 54.88598 -2.87935 24040 ft 429 kts 335°
2026-05-07 11:36 54.91346 -2.89972 24040 ft 429 kts 335°
2026-05-07 11:36 54.94092 -2.92013 24035 ft 429 kts 335°
2026-05-07 11:37 54.96834 -2.94053 23563 ft 427 kts 335°
2026-05-07 11:37 54.99553 -2.96083 22891 ft 424 kts 335°
2026-05-07 11:37 55.02261 -2.98079 22251 ft 421 kts 335°
2026-05-07 11:37 55.04952 -3.00046 21647 ft 417 kts 335°
2026-05-07 11:38 55.07616 -3.01999 21099 ft 413 kts 335°
2026-05-07 11:38 55.10254 -3.03937 20591 ft 409 kts 335°
2026-05-07 11:38 55.12868 -3.05862 20108 ft 405 kts 335°
2026-05-07 11:38 55.15450 -3.07789 19660 ft 402 kts 334°
2026-05-07 11:39 55.18003 -3.09722 19229 ft 398 kts 334°
2026-05-07 11:39 55.20503 -3.11581 18814 ft 393 kts 335°
2026-05-07 11:39 55.23014 -3.13392 18408 ft 388 kts 335°
2026-05-07 11:39 55.25497 -3.15168 17974 ft 383 kts 335°
2026-05-07 11:40 55.27949 -3.16919 17511 ft 377 kts 335°
2026-05-07 11:40 55.30372 -3.18632 16954 ft 375 kts 335°
2026-05-07 11:40 55.32790 -3.20334 16382 ft 374 kts 336°
2026-05-07 11:40 55.35296 -3.21544 16131 ft 376 kts 348°
2026-05-07 11:41 55.37926 -3.21863 16037 ft 383 kts 359°
2026-05-07 11:41 55.40592 -3.21517 16020 ft 384 kts
2026-05-07 11:41 55.43252 -3.21023 16014 ft 385 kts
2026-05-07 11:41 55.45915 -3.20450 16014 ft 386 kts
2026-05-07 11:42 55.48588 -3.19879 15993 ft 387 kts
2026-05-07 11:42 55.51237 -3.19294 15518 ft 382 kts
2026-05-07 11:42 55.53871 -3.18682 14934 ft 380 kts
2026-05-07 11:42 55.56495 -3.18096 14344 ft 380 kts
2026-05-07 11:43 55.59114 -3.17509 13758 ft 379 kts
2026-05-07 11:43 55.61727 -3.16933 13105 ft 378 kts
2026-05-07 11:43 55.64331 -3.16363 12470 ft 376 kts
2026-05-07 11:43 55.66922 -3.15786 11877 ft 374 kts
2026-05-07 11:44 55.69460 -3.15235 11379 ft 370 kts
2026-05-07 11:44 55.71966 -3.14679 11239 ft 356 kts
2026-05-07 11:44 55.74348 -3.13847 11125 ft 343 kts 13°
2026-05-07 11:44 55.76605 -3.12655 10965 ft 333 kts 15°
2026-05-07 11:45 55.78821 -3.11496 10802 ft 322 kts 14°
2026-05-07 11:45 55.80919 -3.10430 10637 ft 314 kts 13°
2026-05-07 11:45 55.82987 -3.09362 10476 ft 305 kts 14°
2026-05-07 11:45 55.85027 -3.08320 10103 ft 305 kts 13°
2026-05-07 11:46 55.87052 -3.07287 9499 ft 298 kts 14°
2026-05-07 11:46 55.89015 -3.06252 8676 ft 291 kts 14°
2026-05-07 11:46 55.90940 -3.05239 7886 ft 285 kts 14°
2026-05-07 11:46 55.92838 -3.04273 7126 ft 285 kts 14°
2026-05-07 11:47 55.94740 -3.03299 6861 ft 282 kts 14°
2026-05-07 11:47 55.96596 -3.02349 6729 ft 273 kts 14°
2026-05-07 11:47 55.98382 -3.01460 6487 ft 258 kts 13°
2026-05-07 11:47 56.00056 -3.00636 6130 ft 242 kts 10°
2026-05-07 11:48 56.01689 -3.00361 5626 ft 231 kts 352°
2026-05-07 11:48 56.03211 -3.00963 5109 ft 219 kts 331°
2026-05-07 11:48 56.04339 -3.02525 4743 ft 194 kts 298°
2026-05-07 11:48 56.04768 -3.04660 4265 ft 180 kts 271°
2026-05-07 11:49 56.04855 -3.06900 3951 ft 178 kts 261°
2026-05-07 11:49 56.04461 -3.08888 3738 ft 169 kts 236°
2026-05-07 11:49 56.03855 -3.10670 3404 ft 166 kts 237°
2026-05-07 11:49 56.03341 -3.12404 3219 ft 149 kts 239°
2026-05-07 11:50 56.02891 -3.13966 3077 ft 136 kts 238°
2026-05-07 11:50 56.02401 -3.15375 2897 ft 131 kts 234°
2026-05-07 11:50 56.01917 -3.16743 2670 ft 129 kts 234°
2026-05-07 11:50 56.01454 -3.18102 2432 ft 127 kts 235°
2026-05-07 11:51 56.01011 -3.19469 2205 ft 127 kts 236°
2026-05-07 11:51 56.00555 -3.20819 2031 ft 126 kts 233°
2026-05-07 11:51 56.00100 -3.22145 1877 ft 125 kts 234°
2026-05-07 11:51 55.99645 -3.23477 1727 ft 126 kts 234°
2026-05-07 11:52 55.99191 -3.24820 1566 ft 126 kts 235°
2026-05-07 11:52 55.98755 -3.26152 1415 ft 122 kts 235°
2026-05-07 11:52 55.98330 -3.27452 1268 ft 120 kts 233°
2026-05-07 11:52 55.97895 -3.28705 1071 ft 121 kts 232°
2026-05-07 11:53 55.97435 -3.30003 858 ft 125 kts 234°
2026-05-07 11:53 55.96986 -3.31341 675 ft 127 kts 237°
2026-05-07 11:53 55.96541 -3.32702 566 ft 126 kts 234°
2026-05-07 11:53 55.96077 -3.34065 372 ft 131 kts 236°
2026-05-07 11:54 55.95608 -3.35469 197 ft 130 kts 233°
2026-05-07 11:54 55.95158 -3.36776 114 ft 108 kts 239°
2026-05-07 11:54 55.94891 -3.37568 112 ft 51 kts 239°
2026-05-07 11:54 55.94752 -3.37978 115 ft 22 kts 239°
2026-05-07 11:55 55.94662 -3.38025 113 ft 14 kts 149°
2026-05-07 11:55 55.94598 -3.37949 114 ft 10 kts 131°
2026-05-07 11:55 55.94613 -3.37820 113 ft 13 kts 59°
2026-05-07 11:55 55.94662 -3.37675 115 ft 15 kts 59°
2026-05-07 11:56 55.94720 -3.37504 115 ft 17 kts 59°
2026-05-07 11:56 55.94787 -3.37308 116 ft 20 kts 59°
2026-05-07 11:56 55.94863 -3.37083 115 ft 22 kts 59°
2026-05-07 11:56 55.94921 -3.36911 114 ft 11 kts 60°
2026-05-07 11:57 55.94894 -3.36806 116 ft 12 kts 170°
2026-05-07 11:57 55.94853 -3.36879 115 ft 9 kts 241°
2026-05-07 11:57 55.94841 -3.36914 115 ft 0 kts 239°